Hourly Weather Kranevo

Today, 15 August, Saturday

Time Temperature Precipitation Wind Pressure Humidity
00:00 +21°C° 0 mm 4 mps 756 mmHg 74%
01:00 +21°C° 0 mm 4 mps 756 mmHg 75%
02:00 +21°C° 0 mm 4 mps 756 mmHg 75%
03:00 +21°C° 0 mm 3 mps 756 mmHg 77%
04:00 +21°C° 0 mm 3 mps 756 mmHg 79%
05:00 +20°C° 0 mm 3 mps 756 mmHg 80%
06:00 +22°C° 0 mm 3 mps 756 mmHg 71%
07:00 +25°C° 0 mm 4 mps 756 mmHg 63%
08:00 +27°C° 0 mm 4 mps 756 mmHg 54%
09:00 +28°C° 0 mm 5 mps 756 mmHg 50%
10:00 +29°C° 0 mm 5 mps 756 mmHg 46%
11:00 +30°C° 0 mm 6 mps 756 mmHg 41%
12:00 +30°C° 0 mm 6 mps 756 mmHg 41%
13:00 +29°C° 0 mm 6 mps 756 mmHg 41%
14:00 +29°C° 0 mm 6 mps 755 mmHg 41%
15:00 +28°C° 0 mm 6 mps 755 mmHg 44%
16:00 +28°C° 0 mm 6 mps 755 mmHg 47%
17:00 +27°C° 0 mm 7 mps 755 mmHg 49%
18:00 +24°C° 0 mm 6 mps 755 mmHg 56%
19:00 +23°C° 0 mm 5 mps 755 mmHg 62%
20:00 +22°C° 0 mm 5 mps 755 mmHg 69%
21:00 +21°C° 0 mm 4 mps 755 mmHg 72%
22:00 +21°C° 0 mm 4 mps 755 mmHg 74%
23:00 +20°C° 0 mm 3 mps 756 mmHg 77%

Tomorrow, 16 August, Sunday

Time Temperature Precipitation Wind Pressure Humidity
00:00 +20°C° 0 mm 3 mps 755 mmHg 76%
01:00 +20°C° 0 mm 3 mps 755 mmHg 74%
02:00 +21°C° 0 mm 3 mps 755 mmHg 73%
03:00 +21°C° 0 mm 3 mps 755 mmHg 72%
04:00 +21°C° 0 mm 3 mps 755 mmHg 71%
05:00 +21°C° 0 mm 3 mps 755 mmHg 70%
06:00 +22°C° 0 mm 4 mps 755 mmHg 63%
07:00 +23°C° 0 mm 4 mps 755 mmHg 57%
08:00 +25°C° 0 mm 5 mps 756 mmHg 51%
09:00 +26°C° 0 mm 5 mps 756 mmHg 46%
10:00 +28°C° 0 mm 5 mps 756 mmHg 42%
11:00 +29°C° 0 mm 5 mps 757 mmHg 37%
12:00 +29°C° 0 mm 5 mps 756 mmHg 38%
13:00 +29°C° 0 mm 6 mps 756 mmHg 39%
14:00 +29°C° 0 mm 6 mps 756 mmHg 40%
15:00 +28°C° 0 mm 6 mps 756 mmHg 41%
16:00 +27°C° 0 mm 6 mps 756 mmHg 42%
17:00 +27°C° 0 mm 6 mps 756 mmHg 44%
18:00 +25°C° 0 mm 5 mps 756 mmHg 51%
19:00 +22°C° 0 mm 5 mps 756 mmHg 59%
20:00 +20°C° 0 mm 4 mps 757 mmHg 67%
21:00 +20°C° 0 mm 3 mps 757 mmHg 69%
22:00 +19°C° 0 mm 3 mps 757 mmHg 71%
23:00 +18°C° 0 mm 3 mps 757 mmHg 73%

Day after tomorrow, 17 August, Monday

Time Temperature Precipitation Wind Pressure Humidity
00:00 +18°C° 0 mm 3 mps 757 mmHg 74%
01:00 +18°C° 0 mm 3 mps 757 mmHg 75%
02:00 +18°C° 0 mm 3 mps 757 mmHg 75%
03:00 +17°C° 0 mm 3 mps 757 mmHg 76%
04:00 +17°C° 0 mm 2 mps 757 mmHg 76%
05:00 +17°C° 0 mm 2 mps 757 mmHg 77%
06:00 +19°C° 0 mm 3 mps 757 mmHg 67%
07:00 +22°C° 0 mm 4 mps 757 mmHg 58%
08:00 +25°C° 0 mm 4 mps 757 mmHg 49%
09:00 +27°C° 0 mm 5 mps 757 mmHg 44%
10:00 +28°C° 0 mm 5 mps 757 mmHg 40%
11:00 +29°C° 0 mm 6 mps 757 mmHg 36%
12:00 +29°C° 0 mm 6 mps 757 mmHg 36%
13:00 +29°C° 0 mm 6 mps 757 mmHg 35%
14:00 +30°C° 0 mm 6 mps 757 mmHg 35%
15:00 +29°C° 0 mm 6 mps 756 mmHg 39%
16:00 +28°C° 0 mm 6 mps 756 mmHg 42%
17:00 +27°C° 0 mm 6 mps 756 mmHg 46%
18:00 +25°C° 0 mm 5 mps 756 mmHg 55%
19:00 +22°C° 0 mm 4 mps 756 mmHg 64%
20:00 +20°C° 0 mm 3 mps 756 mmHg 73%
21:00 +20°C° 0 mm 3 mps 756 mmHg 76%
22:00 +19°C° 0 mm 3 mps 756 mmHg 78%
23:00 +19°C° 0 mm 2 mps 756 mmHg 81%

18 August, Tuesday

Time Temperature Precipitation Wind Pressure Humidity
00:00 +18°C° 0 mm 2 mps 756 mmHg 81%
01:00 +18°C° 0 mm 2 mps 756 mmHg 81%
02:00 +18°C° 0 mm 2 mps 755 mmHg 81%
03:00 +19°C° 0 mm 1 mps 755 mmHg 82%
04:00 +19°C° 0 mm 1 mps 755 mmHg 82%
05:00 +19°C° 0 mm 1 mps 755 mmHg 82%
06:00 +21°C° 0 mm 1 mps 755 mmHg 73%
07:00 +23°C° 0 mm 1 mps 755 mmHg 65%
08:00 +25°C° 0 mm 2 mps 755 mmHg 56%
09:00 +27°C° 0 mm 2 mps 755 mmHg 50%
10:00 +28°C° 0 mm 3 mps 755 mmHg 44%
11:00 +29°C° 0 mm 4 mps 755 mmHg 39%
12:00 +30°C° 0 mm 4 mps 754 mmHg 38%
13:00 +30°C° 0 mm 4 mps 754 mmHg 36%
14:00 +32°C° 0 mm 4 mps 754 mmHg 35%
15:00 +30°C° 0 mm 4 mps 754 mmHg 38%
16:00 +29°C° 0 mm 4 mps 753 mmHg 40%
17:00 +28°C° 0 mm 5 mps 753 mmHg 43%
18:00 +26°C° 0 mm 4 mps 753 mmHg 54%
19:00 +23°C° 0 mm 4 mps 753 mmHg 66%
20:00 +21°C° 0 mm 3 mps 753 mmHg 78%
21:00 +21°C° 0 mm 3 mps 753 mmHg 80%
22:00 +20°C° 0 mm 2 mps 753 mmHg 82%
23:00 +20°C° 0 mm 2 mps 753 mmHg 84%

19 August, Wednesday

Time Temperature Precipitation Wind Pressure Humidity
00:00 +20°C° 0 mm 2 mps 753 mmHg 84%
01:00 +19°C° 0 mm 2 mps 753 mmHg 84%
02:00 +19°C° 0 mm 2 mps 753 mmHg 84%
03:00 +19°C° 0 mm 2 mps 753 mmHg 84%
04:00 +20°C° 0 mm 1 mps 753 mmHg 84%
05:00 +19°C° 0 mm 1 mps 753 mmHg 84%
06:00 +21°C° 0 mm 2 mps 753 mmHg 74%
07:00 +24°C° 0 mm 2 mps 753 mmHg 65%
08:00 +26°C° 0 mm 3 mps 753 mmHg 55%
09:00 +28°C° 0 mm 3 mps 753 mmHg 48%
10:00 +29°C° 0 mm 4 mps 753 mmHg 42%
11:00 +32°C° 0 mm 4 mps 753 mmHg 36%
12:00 +32°C° 0 mm 4 mps 752 mmHg 34%
13:00 +32°C° 0 mm 4 mps 752 mmHg 33%
14:00 +32°C° 0 mm 5 mps 752 mmHg 31%
15:00 +30°C° 0 mm 5 mps 751 mmHg 35%
16:00 +29°C° 0 mm 5 mps 751 mmHg 38%
17:00 +28°C° 0 mm 5 mps 751 mmHg 41%
18:00 +26°C° 0 mm 5 mps 751 mmHg 51%
19:00 +25°C° 0 mm 5 mps 750 mmHg 62%
20:00 +22°C° 0 mm 5 mps 750 mmHg 72%
21:00 +21°C° 0 mm 4 mps 750 mmHg 75%
22:00 +21°C° 0 mm 4 mps 750 mmHg 78%
23:00 +21°C° 0 mm 3 mps 750 mmHg 81%

20 August, Thursday

Time Temperature Precipitation Wind Pressure Humidity
00:00 +20°C° 0 mm 3 mps 750 mmHg 83%
01:00 +20°C° 0 mm 3 mps 750 mmHg 84%
02:00 +20°C° 0 mm 3 mps 750 mmHg 86%
03:00 +20°C° 0 mm 2 mps 750 mmHg 86%
04:00 +19°C° 0 mm 2 mps 750 mmHg 86%
05:00 +20°C° 0 mm 1 mps 750 mmHg 86%
06:00 +21°C° 0 mm 2 mps 750 mmHg 78%
07:00 +24°C° 0 mm 2 mps 750 mmHg 69%
08:00 +26°C° 0 mm 3 mps 750 mmHg 61%
09:00 +27°C° 0 mm 3 mps 750 mmHg 55%
10:00 +28°C° 0 mm 2 mps 750 mmHg 49%
11:00 +30°C° 0 mm 2 mps 750 mmHg 42%
12:00 +30°C° 0 mm 3 mps 750 mmHg 39%
13:00 +31°C° 0 mm 3 mps 750 mmHg 36%
14:00 +33°C° 0 mm 3 mps 750 mmHg 33%
15:00 +31°C° 0.1 mm 3 mps 750 mmHg 37%
16:00 +30°C° 0.1 mm 3 mps 749 mmHg 41%
17:00 +29°C° 0.1 mm 3 mps 749 mmHg 44%
18:00 +27°C° 0 mm 2 mps 749 mmHg 54%
19:00 +25°C° 0 mm 2 mps 750 mmHg 64%
20:00 +23°C° 0 mm 1 mps 750 mmHg 73%
21:00 +23°C° 0 mm 1 mps 750 mmHg 74%
22:00 +22°C° 0 mm 1 mps 750 mmHg 74%
23:00 +22°C° 0 mm 1 mps 750 mmHg 75%
Show more